Location: ActonStarParty
(42.4766°N, 71.4538°W)
Time: 15:54:33
(UTC-04:00)

ISS - All Passes

Search period start: 26 July 2016 00:00
Search period end: 05 August 2016 00:00
Orbit: 401 x 404 km, 51.6° (Epoch: 26 July)

Date Brightness Start Highest point End Pass type
(mag) Time Alt. Az. Time Alt. Az. Time Alt. Az.
26 Jul - 00:01:14 10° WNW 00:03:52 22° NNW 00:06:30 10° NE visible
26 Jul - 01:38:58 10° NW 01:41:09 16° N 01:43:20 10° NE visible
26 Jul - 03:15:16 10° NW 03:18:17 33° NNE 03:21:17 10° E visible
26 Jul - 04:51:42 10° WNW 04:54:44 36° SW 04:57:45 10° SSE visible
26 Jul - 21:31:05 10° SSW 21:34:12 44° SE 21:37:20 10° ENE visible
26 Jul - 23:07:48 10° W 23:10:44 29° NNW 23:13:39 10° NE visible
27 Jul - 00:45:45 10° NW 00:47:55 16° N 00:50:04 10° NE visible
27 Jul - 02:22:26 10° NW 02:25:10 24° NNE 02:27:54 10° ENE visible
27 Jul - 03:58:36 10° WNW 04:01:51 71° SW 04:05:05 10° SE visible
27 Jul - 20:38:43 10° S 20:41:22 23° SE 20:44:02 10° E visible
27 Jul - 22:14:30 10° WSW 22:17:38 45° NNW 22:20:48 10° NE visible
27 Jul - 23:52:22 10° NW 23:54:40 18° N 23:56:58 10° NE visible
28 Jul - 01:29:32 10° NW 01:31:58 19° NNE 01:34:25 10° ENE visible
28 Jul - 03:05:39 10° NW 03:08:53 62° NNE 03:12:07 10° ESE visible
28 Jul - 04:42:53 10° W 04:45:00 16° SW 04:47:06 10° S visible
28 Jul - 19:47:09 10° SSE 19:48:36 12° SE 19:50:05 10° ESE daylight
28 Jul - 21:21:22 10° WSW 21:24:37 79° NNW 21:27:53 10° NE visible
28 Jul - 22:58:52 10° WNW 23:01:27 21° NNW 23:04:00 10° NE visible
29 Jul - 00:36:31 10° NW 00:38:44 17° N 00:40:58 10° NE visible
29 Jul - 02:12:45 10° NW 02:15:50 37° NNE 02:18:53 10° E visible
29 Jul - 03:49:17 10° WNW 03:52:12 30° SW 03:55:06 10° SSE visible
29 Jul - 20:28:28 10° SW 20:31:39 54° SE 20:34:51 10° ENE daylight
29 Jul - 22:05:24 10° W 22:08:15 27° NNW 22:11:06 10° NE visible
29 Jul - 23:43:19 10° NW 23:45:27 16° N 23:47:37 10° NE visible
30 Jul - 01:19:52 10° NW 01:22:41 26° NNE 01:25:30 10° E visible
30 Jul - 02:56:05 10° WNW 02:59:19 59° SW 03:02:30 10° SE night (unlit)
30 Jul - 19:35:56 10° SSW 19:38:46 28° SE 19:41:36 10° ENE daylight
30 Jul - 21:12:01 10° W 21:15:06 39° NNW 21:18:12 10° NE visible
30 Jul - 22:49:55 10° NW 22:52:10 17° N 22:54:25 10° NE visible
31 Jul - 00:26:57 10° NW 00:29:28 20° NNE 00:31:59 10° ENE visible
31 Jul - 02:03:04 10° NW 02:06:19 73° NNE 02:09:34 10° ESE night (unlit)
31 Jul - 03:40:38 10° W 03:42:21 14° SW 03:44:05 10° SSW night (unlit)
31 Jul - 18:44:00 10° SSE 18:45:57 15° SE 18:47:52 10° E daylight
31 Jul - 20:18:47 10° WSW 20:22:01 67° NNW 20:25:16 10° NE daylight
31 Jul - 21:56:25 10° WNW 21:58:53 20° NNW 22:01:23 10° NE visible
31 Jul - 23:33:56 10° NW 23:36:12 17° N 23:38:29 10° NE visible
01 Aug - 01:10:07 10° NW 01:13:15 42° NNE 01:16:22 10° E visible
01 Aug - 02:46:48 10° WNW 02:49:33 25° SW 02:52:17 10° SSE night (unlit)
01 Aug - 19:25:46 10° SW 19:29:00 65° SE 19:32:14 10° ENE daylight
01 Aug - 21:02:53 10° WNW 21:05:39 25° NNW 21:08:25 10° NE visible
01 Aug - 22:40:44 10° NW 22:42:53 16° N 22:45:02 10° NE visible
02 Aug - 00:17:12 10° NW 00:20:05 28° NNE 00:22:58 10° E visible
02 Aug - 01:53:28 10° WNW 01:56:38 49° SW 01:59:47 10° SE night (unlit)
02 Aug - 18:33:05 10° SSW 18:36:03 33° SE 18:39:01 10° ENE daylight
02 Aug - 20:09:25 10° W 20:12:27 35° NNW 20:15:30 10° NE daylight
02 Aug - 21:47:21 10° NW 21:49:34 17° N 21:51:46 10° NE visible
02 Aug - 23:24:14 10° NW 23:26:51 21° NNE 23:29:27 10° ENE visible
03 Aug - 01:00:22 10° NW 01:03:38 86° NE 01:06:53 10° ESE visible
03 Aug - 02:38:28 10° WSW 02:39:36 11° SW 02:40:44 10° SSW night (unlit)
03 Aug - 17:40:55 10° S 17:43:10 18° SE 17:45:25 10° E daylight
03 Aug - 19:16:05 10° WSW 19:19:18 58° NNW 19:22:32 10° NE daylight
03 Aug - 20:53:50 10° WNW 20:56:14 19° N 20:58:39 10° NE visible
03 Aug - 22:31:13 10° NW 22:33:33 18° N 22:35:52 10° NE visible
04 Aug - 00:07:22 10° NW 00:10:32 48° NNE 00:13:42 10° ESE visible
04 Aug - 01:44:11 10° W 01:46:46 21° SW 01:49:20 10° S night (unlit)
04 Aug - 18:22:59 10° SW 18:26:13 77° SE 18:29:29 10° ENE daylight
04 Aug - 20:00:15 10° WNW 20:02:56 23° NNW 20:05:38 10° NE daylight
04 Aug - 21:38:02 10° NW 21:40:12 16° N 21:42:22 10° NE visible
04 Aug - 23:14:24 10° NW 23:17:21 31° NNE 23:20:18 10° E visible
